Date,TemperatureHighF,TemperatureAvgF,TemperatureLowF,DewpointHighF,DewpointAvgF,DewpointLowF,HumidityHigh,HumidityAvg,HumidityLow,PressureMaxIn,PressureMinIn,WindSpeedMaxMPH,WindSpeedAvgMPH,GustSpeedMaxMPH,PrecipitationSumIn
2014-1-1,28.4,23.8,19.7,9.9,5.1,2.5,56,44,33,30.32,30.12,13,3,19,0.00
2014-1-2,23.8,14.4,2.6,15.1,9.2,-2.0,86,80,47,30.30,29.79,18,5,29,0.17
2014-1-3,13.8,6.5,2.0,8.5,0.7,-5.0,83,76,67,30.34,29.65,17,6,26,0.00
2014-1-4,26.3,14.8,1.8,20.1,7.5,-5.0,78,72,63,30.44,30.20,14,2,20,0.01
2014-1-5,40.1,32.2,23.9,36.9,24.0,16.5,89,72,44,30.26,29.88,7,1,17,0.02
2014-1-6,59.0,46.2,29.0,57.8,41.6,13.6,96,85,52,29.85,29.22,18,4,25,0.23
2014-1-7,28.8,15.0,9.2,13.4,-6.6,-15.0,53,37,26,30.16,29.44,27,8,31,0.00
2014-1-8,21.8,15.0,7.6,2.1,-3.5,-11.0,53,43,34,30.40,30.16,14,4,18,0.00
2014-1-9,30.0,22.9,18.1,10.0,4.7,1.3,59,46,31,30.58,30.36,13,2,21,0.00
2014-1-10,38.6,30.2,18.6,35.3,23.6,8.2,88,77,54,30.54,30.21,5,0,7,0.00
2014-1-11,59.8,51.2,38.6,57.4,48.8,35.3,94,92,88,30.21,29.23,23,4,30,0.49
2014-1-12,55.1,44.6,37.2,53.1,31.4,22.9,93,61,45,29.90,29.22,24,5,26,0.03
2014-1-13,52.5,42.7,33.2,44.7,28.7,22.3,84,59,34,30.06,29.84,13,3,21,0.00
2014-1-14,50.2,48.7,44.1,47.9,45.3,41.9,92,88,80,29.84,29.54,15,2,18,0.61
2014-1-15,49.5,42.3,35.9,41.7,36.4,32.0,92,81,56,29.96,29.68,7,1,13,0.00
2014-1-16,40.5,38.3,34.9,37.4,36.0,33.6,96,92,84,29.87,29.78,6,1,9,0.00
2014-1-17,46.4,40.4,35.8,37.7,28.8,16.3,92,67,30,29.92,29.84,9,1,14,0.00
2014-1-18,39.8,36.0,33.4,36.2,32.2,27.1,92,86,70,29.86,29.55,9,1,13,0.43
2014-1-19,35.2,32.3,30.1,31.1,25.5,20.1,92,77,57,29.66,29.48,16,3,22,0.02
2014-1-20,41.8,35.6,27.0,26.1,21.9,7.6,66,58,39,29.80,29.44,19,4,26,0.00
2014-1-21,26.9,16.3,11.7,9.3,1.7,-7.0,80,53,33,30.00,29.80,15,4,21,0.06
2014-1-22,18.3,12.2,8.3,6.7,-0.9,-6.0,80,56,36,29.82,29.57,16,5,24,0.00
2014-1-23,22.2,13.0,5.6,-1.0,-5.2,-8.0,55,43,28,30.08,29.83,12,3,21,0.00
2014-1-24,18.9,13.3,7.4,-1.0,-5.2,-10.0,53,42,27,30.19,30.00,15,4,20,0.00
2014-1-25,38.6,28.0,15.6,26.0,15.6,-1.0,80,60,44,29.99,29.27,23,5,32,0.00
2014-1-26,26.1,20.5,15.4,16.3,2.0,-8.0,68,45,27,29.82,29.27,22,5,29,0.00
2014-1-27,46.5,32.5,21.1,37.3,17.5,-1.0,82,56,27,29.91,29.45,20,5,28,0.00
2014-1-28,21.1,17.5,12.9,1.0,-9.2,-16.0,41,29,20,30.24,29.92,17,4,23,0.00
2014-1-29,26.4,20.7,16.1,4.1,-4.8,-12.0,57,33,18,30.17,29.91,14,3,21,0.00
2014-1-30,31.0,22.6,15.4,12.1,1.1,-8.0,64,39,27,30.37,30.14,11,2,16,0.00
2014-1-31,42.2,34.1,22.4,23.3,15.2,4.8,76,49,27,30.13,29.95,13,2,17,0.00
2014-2-1,46.8,38.8,33.4,29.3,20.6,16.8,73,48,32,30.28,29.97,12,2,16,0.00
2014-2-2,55.4,43.6,35.6,39.2,34.6,29.3,87,72,44,29.98,29.80,9,2,14,0.02
2014-2-3,41.3,33.6,26.6,32.6,26.8,20.0,89,77,53,30.23,29.99,12,3,14,0.10
2014-2-4,34.9,29.4,21.9,23.5,19.7,16.1,88,69,48,30.39,30.22,7,1,11,0.00
2014-2-5,33.8,30.5,24.2,31.4,26.2,21.4,91,84,68,30.25,29.56,14,3,19,0.76
2014-2-6,27.6,23.5,18.4,21.4,14.5,9.5,89,69,49,30.20,29.88,14,2,16,0.00
2014-2-7,30.6,24.3,17.0,11.9,10.0,7.4,66,55,41,30.19,30.09,16,2,19,0.00
2014-2-8,29.4,24.4,16.5,10.8,4.1,0.0,56,42,30,30.23,30.05,10,2,14,0.00
2014-2-9,29.8,26.7,21.8,23.9,15.3,5.3,84,63,40,30.10,29.89,7,2,12,0.01
2014-2-10,29.4,24.1,18.6,21.8,11.8,5.4,84,61,40,30.14,29.83,15,3,20,0.00
2014-2-11,26.0,19.5,13.1,7.9,3.3,0.2,67,50,33,30.37,30.14,11,3,16,0.00
2014-2-12,27.3,22.2,10.2,13.2,2.8,-4.0,65,44,26,30.50,30.36,19,1,19,0.00
2014-2-13,35.9,31.0,22.7,33.8,26.6,12.7,93,84,64,30.35,28.99,23,4,31,0.89
2014-2-14,36.9,33.9,29.4,32.6,26.2,20.7,93,75,58,29.66,28.77,26,7,33,0.35
2014-2-15,36.8,32.1,29.8,29.2,24.8,20.6,92,75,54,29.79,29.40,12,2,20,0.21
2014-2-16,32.9,27.2,21.6,28.0,14.0,8.0,92,59,38,29.89,29.40,21,6,31,0.00
2014-2-17,29.8,22.0,14.4,8.4,-2.1,-6.0,53,34,22,30.30,29.90,17,5,25,0.00
2014-2-18,34.0,25.4,15.4,31.1,17.0,-1.0,89,71,41,30.32,29.81,11,1,16,0.28
2014-2-19,36.9,30.7,23.6,31.7,25.7,19.4,91,82,65,30.04,29.65,7,1,12,0.18
2014-2-20,48.9,40.3,32.8,33.5,27.6,19.2,91,65,31,30.15,29.77,16,2,16,0.05
2014-2-21,41.1,38.8,36.0,40.0,37.0,33.0,96,93,89,30.10,29.61,14,3,20,0.15
2014-2-22,53.6,43.7,34.4,37.6,27.6,18.8,96,60,26,29.91,29.78,13,3,24,0.00
2014-2-23,53.1,46.2,38.8,28.5,24.8,21.7,62,44,30,29.93,29.71,11,1,16,0.00
2014-2-24,43.2,33.9,23.9,26.7,10.5,1.6,53,38,28,29.88,29.67,19,6,27,0.00
2014-2-25,30.0,24.7,21.1,9.0,5.3,2.0,54,43,31,29.92,29.80,16,4,26,0.00
2014-2-26,31.8,22.8,16.1,10.0,1.7,-10.0,58,40,23,29.88,29.69,16,4,21,0.00
2014-2-27,30.6,21.0,12.8,19.2,1.6,-8.0,69,43,21,29.83,29.52,14,3,27,0.00
2014-2-28,25.6,18.2,9.5,-3.0,-9.8,-15.0,43,29,17,30.37,29.84,17,4,23,0.00
2014-3-1,36.8,26.6,12.8,22.4,7.6,-8.0,65,45,23,30.38,30.03,12,2,18,0.00
2014-3-2,40.9,35.3,31.5,24.5,19.6,13.6,63,53,43,30.02,29.89,10,1,12,0.00
2014-3-3,31.3,22.6,17.0,13.0,-0.4,-10.0,50,36,26,30.23,29.92,15,4,20,0.00
2014-3-4,31.0,22.5,11.6,3.2,-4.7,-10.0,42,30,20,30.32,30.18,10,2,12,0.00
2014-3-5,28.8,25.2,20.2,19.5,13.0,0.5,77,61,30,30.43,30.17,10,3,13,0.00
2014-3-6,29.4,21.0,11.1,12.1,-0.2,-13.0,71,41,16,30.58,30.43,12,2,16,0.00
2014-3-7,38.9,28.7,15.7,26.9,16.7,6.7,77,61,41,30.44,29.89,8,1,12,0.00
2014-3-8,56.3,40.8,27.9,26.1,23.2,15.3,81,54,26,29.89,29.61,14,2,20,0.00
2014-3-9,42.6,35.5,29.5,17.1,8.4,1.8,49,33,19,29.87,29.80,20,4,21,0.00
2014-3-10,45.1,37.1,29.4,28.8,21.3,7.9,83,55,34,29.83,29.58,10,2,16,0.01
2014-3-11,59.9,47.3,37.5,34.8,29.4,22.6,87,54,25,29.66,29.44,17,3,22,0.00
2014-3-12,49.9,44.1,38.3,42.0,35.1,28.8,96,72,48,29.66,28.96,12,1,16,0.22
2014-3-13,38.3,23.3,17.7,36.7,12.8,-3.0,94,66,36,29.87,28.94,25,7,30,0.07
2014-3-14,40.5,27.7,15.1,25.6,6.4,-3.0,61,41,22,30.12,29.85,13,3,21,0.00
2014-3-15,57.8,45.7,38.0,38.1,29.8,24.4,81,55,30,29.84,29.60,17,4,27,0.00
2014-3-16,40.6,32.2,26.1,24.3,5.7,-3.0,55,33,19,30.13,29.81,19,6,27,0.00
2014-3-17,31.9,24.2,16.9,6.3,-5.1,-11.0,39,27,17,30.13,29.98,13,3,17,0.00
2014-3-18,38.5,28.7,19.5,20.2,8.9,-3.0,65,43,30,30.29,30.10,10,2,13,0.00
2014-3-19,43.8,35.3,25.8,30.9,24.0,18.8,77,64,46,30.33,29.93,14,3,19,0.00
2014-3-20,52.8,43.9,38.2,40.8,33.1,23.4,95,69,36,29.94,29.55,16,4,24,0.21
2014-3-21,45.4,39.4,33.5,23.4,20.4,17.0,57,47,33,29.97,29.68,21,6,28,0.00
2014-3-22,57.0,41.7,30.1,40.6,23.4,18.7,64,50,28,30.00,29.58,24,4,31,0.01
2014-3-23,44.6,37.2,25.8,23.1,13.4,-2.0,59,40,21,30.01,29.83,14,3,21,0.00
2014-3-24,33.5,25.2,17.0,-1.0,-4.0,-8.0,41,28,16,30.10,29.98,17,5,22,0.00
2014-3-25,39.9,30.9,21.6,14.9,5.5,-1.0,51,35,21,30.08,29.86,11,2,16,0.00
2014-3-26,35.8,31.6,25.3,17.8,6.9,-3.0,59,36,22,29.94,29.51,30,11,40,0.00
2014-3-27,47.1,32.9,21.1,13.9,-0.4,-5.0,39,24,13,30.25,29.94,18,5,25,0.00
2014-3-28,60.7,47.3,36.0,48.2,35.4,13.7,86,65,39,30.20,29.89,15,3,33,0.02
2014-3-29,53.5,46.4,40.3,47.9,39.6,34.0,94,78,55,30.19,29.94,15,4,20,0.59
2014-3-30,42.6,40.6,36.5,41.2,38.9,34.1,95,94,91,29.93,29.57,16,6,22,1.53
2014-3-31,42.1,37.7,34.6,36.4,32.8,28.0,92,83,59,29.94,29.63,17,5,23,0.42
2014-4-1,53.5,44.5,35.0,29.8,26.8,25.1,67,51,36,30.05,29.93,13,3,18,0.00
2014-4-2,55.1,44.9,36.5,34.2,29.6,17.4,75,57,26,30.06,29.95,9,1,15,0.00
2014-4-3,57.0,44.7,36.3,33.3,26.3,19.6,78,51,25,30.07,29.98,15,2,18,0.00
2014-4-4,46.7,41.7,38.8,36.5,30.5,26.4,88,65,45,30.10,29.86,13,4,18,0.15
2014-4-5,53.2,43.9,38.5,42.7,33.5,20.8,95,70,41,29.87,29.62,31,5,31,0.19
2014-4-6,59.5,46.3,33.5,23.3,19.4,13.6,64,38,17,30.12,29.87,12,3,20,0.00
2014-4-7,62.3,50.8,40.5,42.5,24.4,13.5,84,39,18,30.17,29.86,14,2,19,0.02
2014-4-8,67.6,53.6,45.8,56.6,47.7,31.5,96,82,52,29.84,29.25,20,3,26,0.43
2014-4-9,60.1,49.5,41.8,34.6,25.8,8.5,71,43,18,29.90,29.44,18,4,26,0.00
2014-4-10,63.4,49.3,36.8,34.7,18.8,8.8,58,31,15,30.10,29.91,21,4,26,0.00
2014-4-11,70.1,58.9,48.8,49.3,40.1,33.9,71,51,31,29.95,29.84,11,2,18,0.01
2014-4-12,70.1,59.1,47.1,46.7,35.4,25.3,91,49,20,30.14,29.90,19,2,19,0.04
2014-4-13,68.1,55.9,48.9,51.0,40.6,33.3,76,57,43,30.21,29.95,10,2,15,0.02
2014-4-14,77.0,65.3,49.4,55.5,51.2,42.1,81,62,42,29.97,29.82,27,6,32,0.01
2014-4-15,69.4,61.3,44.6,59.0,56.5,42.1,92,85,61,29.85,29.52,29,8,35,0.90
2014-4-16,45.8,38.5,31.3,42.0,21.2,11.0,92,55,26,30.55,29.67,20,6,33,0.43
2014-4-17,42.9,36.7,31.5,25.2,20.8,13.0,67,53,41,30.75,30.55,15,4,23,0.00
2014-4-18,45.5,38.6,30.9,33.3,29.2,24.8,83,69,55,30.60,30.19,10,2,16,0.00
2014-4-19,64.3,50.6,38.3,34.9,29.8,22.9,84,50,24,30.35,30.10,20,4,24,0.00
2014-4-20,55.0,46.4,38.8,32.4,23.3,7.9,67,42,16,30.46,30.29,15,3,16,0.00
2014-4-21,72.3,54.2,37.8,39.0,28.1,16.9,71,43,14,30.29,29.78,14,2,22,0.00
2014-4-22,75.8,60.3,49.1,52.1,41.1,34.9,89,54,23,29.78,29.41,18,2,21,0.05
2014-4-23,56.2,52.2,47.1,52.2,44.1,31.7,91,76,50,29.55,29.36,24,5,31,0.23
2014-4-24,59.3,50.1,41.9,31.2,22.9,15.7,54,35,23,29.85,29.54,31,9,33,0.00
2014-4-25,66.3,53.4,42.8,33.0,25.9,18.5,52,36,16,29.95,29.77,13,2,17,0.00
2014-4-26,49.6,45.8,43.3,41.4,37.4,31.1,89,74,49,29.82,29.73,10,2,12,0.14
2014-4-27,50.1,45.7,41.8,43.1,39.8,37.3,89,80,68,29.98,29.79,9,1,13,0.06
2014-4-28,58.3,48.9,40.8,40.3,36.6,33.5,79,64,44,30.17,29.93,12,3,20,0.00
2014-4-29,46.5,43.5,42.5,38.5,34.8,32.9,77,71,67,30.47,30.17,22,6,23,0.00
2014-4-30,46.4,43.3,41.8,41.7,37.4,34.2,92,80,70,30.48,30.12,16,5,19,0.21
2014-5-1,64.8,52.5,43.9,57.6,49.3,41.7,95,89,73,30.10,29.59,7,1,16,0.59
2014-5-2,69.6,60.4,52.2,53.4,38.9,31.1,90,49,25,29.74,29.59,16,3,22,0.00
2014-5-3,67.6,60.3,49.5,39.8,38.0,34.6,67,45,30,29.80,29.65,11,1,14,0.00
2014-5-4,61.8,56.2,49.6,44.7,37.8,32.1,72,51,34,29.66,29.47,21,6,33,0.00
2014-5-5,65.6,57.3,50.1,42.4,38.6,35.7,68,51,34,29.79,29.55,17,5,23,0.00
2014-5-6,65.2,55.3,45.4,39.0,33.0,23.1,75,46,24,29.97,29.77,24,3,24,0.01
2014-5-7,70.3,58.1,44.9,35.0,28.4,19.3,54,34,15,30.11,29.97,10,2,18,0.00
2014-5-8,69.4,59.4,48.2,52.8,36.6,27.8,76,45,25,30.13,30.01,11,2,15,0.00
2014-5-9,59.9,56.2,53.2,53.5,51.0,47.7,92,83,67,30.18,30.01,6,1,9,0.00
2014-5-10,81.4,68.7,59.5,64.6,59.6,52.8,93,76,38,30.01,29.68,12,2,20,0.36
2014-5-11,80.3,70.7,61.0,59.5,39.0,24.5,84,38,13,29.96,29.72,14,3,23,0.02
2014-5-12,87.4,73.9,58.4,55.8,41.4,35.0,58,34,16,30.05,29.89,15,2,22,0.00
2014-5-13,58.6,51.3,47.9,44.7,40.0,29.2,75,66,47,30.28,30.06,17,3,24,0.00
2014-5-14,65.0,56.6,47.3,53.7,46.0,39.3,81,68,54,30.27,30.19,9,2,14,0.00
2014-5-15,81.4,68.9,61.0,62.2,59.0,53.6,89,72,46,30.23,30.15,12,2,17,0.00
2014-5-16,74.6,67.8,65.0,64.0,61.4,59.1,93,81,61,30.14,29.92,15,3,23,0.13
2014-5-17,78.3,68.2,58.9,64.3,51.2,34.2,95,61,23,30.00,29.79,14,3,21,0.11
2014-5-18,69.3,60.2,51.6,44.9,40.6,31.9,61,49,35,30.05,29.95,12,1,13,0.04
2014-5-19,68.1,58.7,51.3,49.0,36.1,29.8,87,45,26,30.03,29.93,19,4,30,0.03
2014-5-20,73.3,61.7,50.8,49.4,44.1,35.8,89,56,27,29.95,29.87,14,2,21,0.02
2014-5-21,71.1,61.7,51.7,51.6,48.5,44.6,85,63,44,29.93,29.87,11,2,15,0.01
2014-5-22,63.9,57.8,54.8,56.5,52.0,48.1,92,81,64,29.90,29.81,8,1,13,0.04
2014-5-23,61.5,56.4,53.2,55.2,50.8,46.6,93,82,61,29.92,29.81,11,2,13,0.01
2014-5-24,67.1,59.4,52.5,52.1,47.6,43.3,92,67,44,30.00,29.89,11,2,12,0.00
2014-5-25,69.3,60.1,52.3,54.6,52.0,50.5,94,77,54,30.03,29.94,9,1,11,0.00
2014-5-26,79.9,75.5,63.2,57.9,54.9,51.4,77,50,38,29.85,29.73,12,2,22,0.00
2014-5-27,73.7,61.6,49.6,57.7,52.7,47.2,93,74,50,29.90,29.73,12,2,16,0.02
2014-5-28,50.5,49.0,45.1,48.8,46.0,39.9,95,90,79,30.15,29.84,15,4,20,0.02
2014-5-29,65.8,54.1,41.5,45.7,38.7,25.0,90,60,29,30.18,30.09,9,1,13,0.00
2014-5-30,74.9,59.9,47.7,55.6,47.3,38.3,89,67,27,30.10,29.92,10,1,14,0.01
2014-5-31,66.1,57.0,50.8,50.9,45.1,30.3,90,68,31,30.23,29.99,12,3,17,0.00
2014-6-1,75.1,62.9,48.3,49.2,41.8,34.1,84,50,26,30.27,30.18,10,1,13,0.00
2014-6-2,85.7,70.9,55.3,52.9,46.2,42.6,64,44,23,30.18,29.93,13,1,16,0.00
2014-6-3,81.1,69.5,59.2,56.9,52.7,40.4,76,56,41,29.96,29.83,13,2,19,0.00
2014-6-4,65.2,60.6,55.4,56.6,52.9,41.9,89,77,45,29.84,29.72,6,1,11,0.16
2014-6-5,62.0,59.9,57.0,59.8,58.1,55.8,96,94,89,29.73,29.58,10,1,15,0.09
2014-6-6,76.8,65.8,56.0,58.0,53.5,47.1,97,68,38,29.81,29.63,18,2,22,0.01
2014-6-7,84.5,72.8,58.4,56.9,52.8,48.5,81,53,30,29.87,29.80,10,1,14,0.00
2014-6-8,86.7,75.9,62.1,57.5,54.4,48.6,79,50,28,29.88,29.79,9,1,12,0.00
2014-6-9,82.6,72.5,66.1,60.9,55.6,50.8,70,56,35,29.92,29.83,9,1,15,0.01
2014-6-10,82.8,69.4,61.6,66.5,61.7,53.5,89,77,55,30.04,29.86,13,2,18,0.00
2014-6-11,71.6,63.7,59.0,54.3,52.6,48.8,81,68,49,30.13,30.04,12,3,15,0.00
2014-6-12,70.3,64.1,60.2,58.4,55.3,51.6,80,73,62,30.10,30.00,9,2,15,0.01
2014-6-13,65.3,62.5,60.4,64.0,59.9,56.2,96,92,76,30.01,29.72,12,2,15,0.00
2014-6-14,76.7,66.2,59.9,66.0,59.3,50.3,97,81,57,29.84,29.74,10,1,18,0.01
2014-6-15,81.2,69.4,56.9,54.8,50.9,46.3,82,54,34,29.99,29.84,17,4,20,0.01
2014-6-16,79.9,70.6,59.5,52.7,48.0,42.1,67,47,28,30.08,29.95,8,1,12,0.00
2014-6-17,87.6,74.8,61.5,69.0,62.2,51.5,90,66,50,30.00,29.81,10,1,18,0.00
2014-6-18,87.4,78.7,69.9,66.8,61.8,55.2,87,59,36,29.86,29.66,19,3,25,0.00
2014-6-19,84.7,75.8,67.1,62.3,51.5,34.0,73,47,22,29.90,29.83,13,2,18,0.00
2014-6-20,77.2,68.0,59.3,47.7,41.3,33.8,62,40,21,29.91,29.81,16,3,22,0.00
2014-6-21,77.9,67.0,55.0,48.4,43.6,39.8,67,45,29,29.91,29.81,11,1,16,0.00
2014-6-22,77.0,67.4,56.9,50.1,45.8,41.7,66,47,31,29.97,29.86,9,2,13,0.00
2014-6-23,81.6,70.3,57.6,55.8,50.1,43.6,83,52,28,30.11,29.97,11,1,15,0.00
2014-6-24,87.2,73.0,61.3,58.7,54.6,49.8,75,54,35,30.11,29.95,17,2,19,0.00
2014-6-25,91.8,78.2,66.4,68.6,63.1,53.8,83,61,43,29.95,29.79,10,1,18,0.00
2014-6-26,80.3,70.9,62.3,72.1,64.8,55.2,95,82,66,29.95,29.72,11,2,15,0.63
2014-6-27,79.2,68.9,59.3,57.1,45.4,31.7,91,49,21,30.14,29.95,11,2,16,0.00
2014-6-28,87.4,71.6,59.2,57.7,46.7,34.1,74,45,17,30.20,30.14,9,1,11,0.00
2014-6-29,90.1,75.9,62.1,58.1,53.2,44.5,79,50,22,30.19,30.04,12,1,19,0.00
2014-6-30,91.4,77.9,65.0,63.5,59.2,54.6,79,55,33,30.04,29.84,15,1,18,0.00
2014-7-1,90.5,80.6,69.9,70.0,65.9,58.7,83,62,48,29.87,29.72,12,2,21,0.00
2014-7-2,95.1,82.8,73.7,73.0,69.5,64.6,81,65,48,29.86,29.73,15,2,24,0.00
2014-7-3,94.9,82.9,70.6,73.5,70.3,66.0,91,68,45,29.95,29.81,13,1,29,0.22
2014-7-4,75.8,69.4,64.0,69.0,66.3,62.4,95,90,74,29.93,29.74,12,1,17,1.17
2014-7-5,80.5,70.1,57.6,63.3,50.8,37.8,95,58,26,29.93,29.70,18,5,29,0.34
2014-7-6,87.2,76.7,65.6,59.0,50.7,45.4,62,42,26,29.94,29.79,13,2,23,0.00
2014-7-7,90.3,78.6,69.9,70.9,63.9,58.9,81,62,41,29.81,29.63,13,2,21,0.02
2014-7-8,92.7,81.4,72.8,69.2,66.5,63.3,82,62,39,29.73,29.62,11,2,20,0.00
2014-7-9,91.0,81.4,73.5,69.2,63.8,56.7,82,58,34,29.87,29.59,14,2,17,0.00
2014-7-10,83.8,76.7,69.6,63.6,56.3,49.9,76,51,34,30.07,29.87,10,1,15,0.00
2014-7-11,80.1,72.9,67.4,59.3,53.4,47.0,72,52,34,30.18,30.07,10,2,13,0.00
2014-7-12,88.0,75.8,63.2,63.5,57.7,47.6,83,57,26,30.16,30.04,8,1,14,0.00
2014-7-13,89.9,78.0,68.4,66.7,60.3,52.8,79,57,30,30.06,29.83,15,3,26,0.00
2014-7-14,88.0,78.0,73.3,73.5,69.9,66.7,94,78,52,29.84,29.79,10,1,16,0.28
2014-7-15,89.5,79.2,73.2,74.6,72.5,71.3,98,82,58,29.81,29.68,12,2,18,0.00
2014-7-16,77.2,74.4,69.9,73.2,71.2,67.9,94,90,81,29.78,29.69,7,1,13,0.63
2014-7-17,83.2,74.7,66.0,68.0,59.6,52.3,94,63,36,30.01,29.78,7,1,14,0.00
2014-7-18,84.1,74.1,65.5,59.6,55.8,49.7,73,55,31,30.16,30.01,7,1,11,0.00
2014-7-19,79.4,72.1,66.1,62.0,59.6,55.8,84,65,49,30.21,30.15,8,0,9,0.00
2014-7-20,77.4,70.5,65.5,61.5,56.9,51.4,84,63,45,30.16,30.09,9,1,13,0.00
2014-7-21,81.1,70.7,63.2,63.0,59.0,51.9,91,69,39,30.14,30.09,13,1,13,0.00
2014-7-22,91.2,84.7,73.3,68.0,64.9,61.1,72,53,39,30.08,29.93,7,1,13,0.00
2014-7-23,94.3,82.0,72.1,71.7,67.9,64.6,79,64,42,29.93,29.67,11,1,18,0.00
2014-7-24,79.0,74.1,67.8,65.8,63.3,58.4,80,69,60,29.84,29.68,11,2,13,0.00
2014-7-25,83.2,73.7,62.9,61.0,54.2,47.6,79,53,32,29.92,29.84,11,1,16,0.00
2014-7-26,88.0,68.9,65.0,63.1,52.4,49.6,80,51,29,29.92,29.82,18,1,18,0.00
2014-7-27,81.1,53.3,69.8,71.5,49.3,65.7,93,60,60,29.84,29.60,16,1,16,0.26
2014-7-28,85.7,39.0,71.3,70.5,33.5,61.6,93,35,56,29.62,29.38,22,1,22,0.64
2014-7-29,79.9,49.9,66.1,57.2,36.9,53.1,69,35,42,29.88,29.49,12,1,16,0.07
2014-7-30,81.6,71.7,60.7,58.6,53.2,42.0,83,55,29,29.99,29.88,12,0,12,0.00
2014-7-31,85.3,73.5,62.6,62.5,57.4,54.0,82,59,36,30.10,29.99,19,1,19,0.00
2014-8-1,87.0,75.6,66.1,66.8,63.6,60.8,88,68,45,30.17,30.10,17,1,17,0.00
2014-8-2,72.8,68.8,64.0,66.8,61.5,55.9,86,78,67,30.17,30.06,16,1,16,0.01
2014-8-3,74.7,67.6,63.4,63.1,60.2,57.8,90,78,58,30.08,29.99,9,1,9,0.00
2014-8-4,86.7,75.3,65.6,67.5,63.6,58.8,92,70,41,30.00,29.92,12,0,12,0.00
2014-8-5,89.0,78.9,68.8,67.4,64.6,53.9,92,65,33,29.97,29.82,11,1,11,0.00
2014-8-6,83.0,75.8,69.9,65.9,58.9,46.7,80,58,30,29.82,29.71,16,1,16,0.00
2014-8-7,80.3,69.6,62.9,64.0,54.8,51.0,83,60,38,29.88,29.78,16,1,16,0.13
2014-8-8,83.6,71.9,59.8,56.9,53.2,46.3,81,55,28,29.96,29.87,15,1,15,0.00
2014-8-9,84.3,74.2,62.9,60.2,56.0,50.8,77,55,37,30.03,29.95,12,1,12,0.00
2014-8-10,86.1,74.8,64.5,60.0,54.8,46.8,77,52,28,30.07,30.01,13,1,13,0.00
2014-8-11,87.8,75.6,65.2,63.8,58.5,54.6,80,58,33,30.09,30.03,17,1,17,0.00
2014-8-12,84.3,74.3,65.2,65.2,59.8,48.5,89,63,32,30.07,29.97,18,2,18,0.00
2014-8-13,71.1,68.0,63.7,68.8,64.8,61.9,97,90,76,29.97,29.55,21,4,21,1.32
2014-8-14,76.8,67.6,59.6,61.9,53.8,46.2,95,66,37,29.81,29.60,13,2,19,0.00
2014-8-15,76.8,66.2,59.6,57.4,52.5,47.1,89,63,37,29.87,29.77,18,1,18,0.01
2014-8-16,79.0,69.7,60.1,57.3,52.2,47.8,76,56,35,29.92,29.85,17,1,17,0.00
2014-8-17,79.6,71.6,64.0,62.1,57.6,51.6,85,63,48,29.85,29.69,17,1,17,0.00
2014-8-18,78.3,68.6,60.1,55.6,50.7,43.4,79,55,31,29.83,29.73,19,2,19,0.00
2014-8-19,79.2,67.2,55.9,55.2,51.5,46.4,82,59,33,29.89,29.81,12,1,12,0.00
2014-8-20,80.5,68.7,59.2,59.0,55.4,49.1,89,65,39,30.00,29.89,12,1,12,0.00
2014-8-21,76.8,68.1,59.9,63.4,60.5,56.8,93,78,55,30.05,29.99,11,1,11,0.00
2014-8-22,72.7,67.6,62.0,63.6,60.9,55.7,93,80,60,30.05,30.01,10,2,13,0.09
2014-8-23,74.4,67.1,61.5,60.2,56.1,48.9,89,69,53,30.08,30.03,16,2,17,0.00
2014-8-24,80.7,70.3,59.9,57.3,54.1,51.0,82,59,38,30.09,30.04,10,0,10,0.00
2014-8-25,89.0,75.1,63.4,63.7,58.9,55.7,84,60,36,30.09,30.04,12,1,12,0.00
2014-8-26,90.7,76.8,64.8,64.6,61.7,55.3,89,63,31,30.10,29.97,14,0,14,0.00
2014-8-27,91.8,78.6,67.1,70.5,64.2,58.6,91,63,41,29.99,29.77,18,1,18,0.06
2014-8-28,82.0,73.4,64.2,70.4,55.4,43.8,90,57,32,29.92,29.73,21,3,21,0.00
2014-8-29,73.7,65.3,58.4,56.0,52.4,48.5,78,64,47,30.22,29.92,15,2,15,0.00
2014-8-30,80.3,68.3,58.1,60.4,55.8,50.0,90,67,37,30.25,30.08,19,1,19,0.00
2014-8-31,84.9,76.2,66.4,73.3,68.0,59.7,93,76,62,30.08,29.88,21,1,21,0.43
2014-9-1,89.5,79.4,70.9,72.5,68.8,63.2,94,73,46,29.92,29.83,11,0,11,0.01
2014-9-2,94.3,81.6,73.3,76.4,70.8,66.9,89,73,42,29.87,29.67,17,1,22,0.32
2014-9-3,82.4,76.4,70.8,71.8,60.9,51.3,88,61,35,30.02,29.64,16,2,17,0.00
2014-9-4,86.5,75.3,63.1,60.8,56.8,47.2,82,56,28,30.13,30.02,11,0,11,0.00
2014-9-5,91.2,78.5,68.3,70.6,65.0,60.5,84,65,42,30.10,29.92,16,1,17,0.00
2014-9-6,92.3,80.0,69.9,73.6,70.2,62.4,90,74,50,29.92,29.68,29,2,29,0.07
2014-9-7,76.7,69.1,63.7,62.9,56.4,41.0,89,66,28,30.15,29.86,12,1,20,0.10
2014-9-8,73.9,65.8,58.7,56.7,52.2,47.9,86,63,45,30.33,30.15,14,2,17,0.00
2014-9-9,72.0,65.9,62.7,59.1,53.1,45.3,87,64,43,30.30,30.13,16,2,17,0.00
2014-9-10,73.7,65.1,60.2,62.0,58.7,56.0,93,81,57,30.14,29.97,14,2,14,0.00
2014-9-11,79.8,71.3,64.2,67.4,62.7,58.2,88,75,60,29.98,29.71,16,2,18,0.00
2014-9-12,70.9,63.9,56.2,58.2,50.2,44.6,79,62,42,30.18,29.83,19,2,19,0.00
2014-9-13,68.3,59.4,51.6,58.8,51.5,45.2,95,76,56,30.23,30.05,16,2,17,0.13
2014-9-14,65.6,58.6,51.0,57.0,46.6,40.2,92,67,42,30.18,30.05,18,2,20,0.01
2014-9-15,65.6,56.7,46.2,47.6,43.6,40.4,84,63,40,30.19,30.05,11,1,13,0.00
2014-9-16,66.3,59.9,54.4,55.1,51.1,46.2,79,73,65,30.05,29.89,10,0,12,0.00
2014-9-17,72.7,61.6,51.7,51.6,47.0,38.1,89,62,31,29.96,29.87,10,0,10,0.00
2014-9-18,73.7,62.4,50.5,49.1,46.4,39.1,84,59,35,30.09,29.87,16,2,16,0.00
2014-9-19,58.0,52.2,46.0,39.9,34.7,29.8,66,52,38,30.37,30.09,16,2,16,0.00
2014-9-20,72.8,59.8,43.6,56.0,47.1,35.6,84,64,46,30.35,30.03,17,2,20,0.00
2014-9-21,83.6,72.0,61.6,68.7,64.4,55.7,92,78,56,30.03,29.49,18,1,18,0.05
2014-9-22,72.5,65.8,52.5,67.9,51.8,39.1,93,64,35,30.03,29.47,27,3,27,0.00
2014-9-23,69.9,58.4,46.5,49.0,42.1,38.5,76,57,36,30.37,30.03,13,1,15,0.00
2014-9-24,68.3,59.6,51.4,53.5,50.6,48.3,90,73,54,30.57,30.37,14,2,15,0.00
2014-9-25,63.4,58.7,52.2,51.8,50.5,48.8,88,75,63,30.49,30.19,10,1,12,0.00
2014-9-26,75.1,62.8,53.6,54.0,51.1,47.9,82,67,43,30.19,30.08,14,1,14,0.00
2014-9-27,83.2,68.9,55.1,58.9,54.2,50.2,91,64,33,30.12,30.06,10,0,10,0.00
2014-9-28,86.3,72.8,59.0,61.6,58.6,55.1,90,64,37,30.10,29.92,11,0,11,0.00
2014-9-29,77.7,66.6,58.1,61.4,58.6,55.2,91,77,47,29.97,29.88,15,2,15,0.00
2014-9-30,58.1,57.1,56.6,55.5,54.8,54.1,92,92,91,29.99,29.94,13,3,14,0.12
2014-10-1,58.4,57.6,57.2,56.4,55.7,54.9,95,93,91,30.06,29.95,16,4,18,0.81
2014-10-2,57.2,55.4,51.0,55.8,52.3,47.4,95,89,78,30.12,30.05,15,4,15,0.21
2014-10-3,57.5,53.4,47.6,52.1,48.8,45.1,92,85,74,30.09,29.85,13,1,14,0.01
2014-10-4,65.2,59.3,54.7,63.4,56.9,52.1,95,92,86,29.85,29.47,14,2,14,0.18
2014-10-5,64.3,55.7,48.9,61.9,42.5,32.0,93,65,34,29.89,29.48,18,1,18,0.00
2014-10-6,67.3,55.2,42.9,50.5,41.7,30.5,85,64,33,30.09,29.89,16,1,16,0.00
2014-10-7,74.0,64.9,55.6,59.9,55.9,50.6,93,74,45,30.09,29.91,23,3,23,0.00
2014-10-8,73.9,67.3,59.0,63.4,53.3,41.9,89,63,36,29.91,29.64,22,2,22,0.00
2014-10-9,65.3,58.1,50.5,42.8,36.6,29.4,66,46,29,29.94,29.82,22,2,22,0.00
2014-10-10,62.6,55.8,48.3,41.9,38.1,33.6,66,52,36,30.08,29.94,18,1,18,0.00
2014-10-11,51.0,49.0,45.7,47.6,43.5,39.8,91,81,66,30.08,30.00,7,0,7,0.30
2014-10-12,60.4,50.8,41.8,44.5,39.9,35.5,91,69,41,30.25,30.06,13,1,13,0.00
2014-10-13,64.2,54.6,41.8,53.6,45.7,37.6,89,73,57,30.31,30.19,13,1,13,0.00
2014-10-14,78.6,68.2,59.8,63.7,59.8,52.8,88,76,56,30.19,30.09,22,2,22,0.00
2014-10-15,81.4,71.3,64.5,66.8,64.1,61.2,92,79,54,30.09,29.91,20,2,20,0.00
2014-10-16,73.5,69.6,63.4,69.7,66.6,60.8,92,90,86,29.91,29.61,18,2,18,0.47
2014-10-17,72.8,64.8,59.9,60.8,56.0,48.4,94,76,43,29.64,29.54,16,1,16,0.01
2014-10-18,73.5,63.5,57.6,60.7,55.6,48.3,92,77,54,29.61,29.42,20,2,20,0.00
2014-10-19,57.6,51.8,44.5,48.3,36.1,22.9,72,56,42,29.89,29.53,22,4,22,0.00
2014-10-20,57.0,47.8,37.9,40.4,30.0,23.1,67,51,32,30.00,29.90,10,1,15,0.00
2014-10-21,64.7,56.3,48.5,57.3,50.4,40.1,88,81,68,29.94,29.84,12,1,12,0.03
2014-10-22,55.7,52.3,50.8,53.9,50.0,47.4,94,92,88,29.96,29.71,43,8,43,0.62
2014-10-23,54.8,52.2,49.8,52.5,50.2,47.9,99,93,91,29.72,29.53,30,9,34,2.00
2014-10-24,54.5,51.1,47.9,49.2,46.2,41.0,95,84,71,29.68,29.60,15,3,17,0.11
2014-10-25,64.8,54.8,45.5,45.8,41.9,36.5,83,64,35,29.70,29.42,13,1,13,0.00
2014-10-26,58.7,54.0,47.0,46.1,40.5,35.1,70,61,42,29.65,29.39,24,2,24,0.00
2014-10-27,62.4,52.8,44.9,41.1,38.5,35.7,76,60,38,29.97,29.65,20,2,20,0.00
2014-10-28,63.5,53.3,43.1,52.3,45.6,38.6,91,76,54,30.02,29.87,12,1,12,0.00
2014-10-29,74.6,60.4,52.5,60.7,52.6,42.3,93,77,51,29.88,29.69,11,1,15,0.05
2014-10-30,59.5,50.7,43.8,49.2,40.3,35.4,86,69,44,29.94,29.82,17,1,17,0.00
2014-10-31,53.8,48.5,43.1,40.8,37.4,34.1,89,66,53,29.99,29.90,14,2,14,0.00
2014-11-1,48.3,43.8,39.2,43.3,37.7,33.0,91,80,59,29.89,29.72,26,6,26,0.31
2014-11-2,41.2,39.0,34.6,36.3,29.0,14.4,90,70,35,29.76,29.56,29,8,29,0.14
2014-11-3,52.9,44.3,35.2,30.9,16.9,4.5,53,35,14,30.00,29.76,20,4,31,0.00
2014-11-4,63.4,52.1,40.5,43.3,33.0,25.4,65,50,27,30.06,29.93,14,0,14,0.00
2014-11-5,66.3,57.2,46.7,47.4,40.0,31.3,74,54,33,30.06,29.89,21,1,21,0.00
2014-11-6,51.6,48.9,45.8,48.0,42.7,35.0,93,80,64,30.06,29.41,14,1,14,0.54
2014-11-7,49.1,45.0,38.9,47.2,36.8,24.6,94,74,56,29.72,29.40,26,5,26,0.00
2014-11-8,48.2,41.2,34.9,31.2,24.1,18.4,69,52,32,29.90,29.73,17,2,17,0.00
2014-11-9,56.2,47.4,40.5,36.7,33.6,30.4,70,59,42,29.94,29.82,13,1,13,0.00
2014-11-10,59.3,47.5,36.0,42.0,32.8,28.8,82,59,32,30.14,29.95,11,0,11,0.00
2014-11-11,63.9,52.9,41.2,53.4,45.4,35.0,92,76,53,30.14,29.91,17,1,17,0.00
2014-11-12,61.0,55.2,45.4,55.2,49.3,33.4,93,81,55,29.94,29.78,16,1,16,0.00
2014-11-13,49.9,44.5,36.9,34.5,28.1,23.0,83,54,35,30.02,29.90,10,1,11,0.04
2014-11-14,43.5,37.5,32.2,35.5,26.3,16.4,91,67,34,30.03,29.83,16,2,20,0.13
2014-11-15,39.9,33.8,29.0,23.0,17.0,10.7,70,51,30,30.28,30.03,15,2,15,0.00
2014-11-16,42.8,36.8,28.4,28.3,21.9,16.0,66,55,36,30.32,30.06,17,1,17,0.00
2014-11-17,47.7,42.2,38.5,45.8,37.5,27.6,93,84,58,30.06,29.37,13,1,13,1.17
2014-11-18,42.1,35.0,26.4,40.2,18.7,1.1,93,56,28,29.86,29.39,27,5,27,0.00
2014-11-19,36.8,29.7,23.5,14.6,6.9,3.0,49,38,27,30.08,29.86,22,3,22,0.00
2014-11-20,48.8,37.7,31.3,20.4,17.2,11.7,59,44,27,30.00,29.67,27,3,27,0.00
2014-11-21,36.2,30.6,27.0,17.1,9.2,1.6,56,41,29,30.35,29.85,25,5,25,0.00
2014-11-22,45.1,34.6,24.8,21.1,11.0,2.5,55,39,18,30.37,29.99,23,4,23,0.00
2014-11-23,59.5,50.1,42.5,38.1,30.7,20.7,65,47,38,30.08,29.99,18,2,18,0.00
2014-11-24,66.1,58.9,44.9,63.4,54.2,34.0,92,84,66,30.03,29.51,28,4,28,0.27
2014-11-25,63.1,57.7,48.2,55.1,39.0,23.7,90,55,25,30.06,29.63,16,2,16,0.00
2014-11-26,48.2,40.3,33.2,35.7,31.2,27.9,93,73,46,30.14,29.62,24,4,24,1.19
2014-11-27,38.2,34.5,31.0,32.8,30.0,25.9,93,84,74,29.94,29.62,19,3,19,0.03
2014-11-28,35.2,31.0,26.6,26.9,22.2,16.1,87,71,51,30.15,29.92,17,3,20,0.04
2014-11-29,34.9,29.5,22.7,21.9,15.7,11.7,72,57,40,30.29,30.15,11,1,11,0.00
2014-11-30,58.0,48.3,34.4,42.2,35.6,21.9,78,62,42,30.19,29.96,20,2,20,0.00
2014-12-1,64.3,53.2,40.3,45.5,39.5,25.3,68,60,50,30.38,29.94,19,4,19,0.00
2014-12-2,41.5,37.2,33.4,38.5,24.2,16.7,89,60,47,30.65,30.32,20,5,20,0.11
2014-12-3,51.3,44.2,36.9,49.3,40.9,25.4,94,89,56,30.32,29.80,24,3,24,0.32
2014-12-4,43.9,37.4,30.3,25.2,20.0,12.9,62,49,36,30.49,30.01,24,3,24,0.00
2014-12-5,43.2,35.4,25.6,36.3,22.9,12.6,84,60,48,30.62,30.37,17,2,17,0.10
2014-12-6,45.7,40.4,37.6,43.5,38.2,35.5,93,92,84,30.37,30.09,15,2,15,0.65
2014-12-7,38.2,32.6,21.3,36.4,17.1,-4.8,93,57,23,30.63,30.17,22,5,22,0.06
2014-12-8,27.5,22.8,18.8,23.4,11.9,-2.7,85,64,35,30.71,30.45,17,4,17,0.00
2014-12-9,31.5,2.7,27.5,28.6,2.4,23.6,89,8,85,30.45,29.43,14,0,14,0.01
2014-12-12,39.1,36.6,34.3,27.8,27.0,26.2,75,68,62,29.82,29.76,12,3,15,0.00
2014-12-13,43.1,35.5,31.5,27.6,25.7,24.3,79,67,53,29.80,29.71,12,3,18,0.00
2014-12-14,45.2,37.3,32.5,28.6,26.7,25.0,76,66,51,29.85,29.72,12,2,16,0.00
2014-12-15,43.5,36.3,31.0,32.2,28.6,26.2,84,74,54,30.09,29.84,9,1,14,0.00
2014-12-16,44.9,40.0,34.1,41.6,34.9,29.8,88,82,76,30.10,29.85,9,1,9,0.00
2014-12-17,48.0,44.3,41.2,44.3,40.2,32.5,94,86,71,29.85,29.62,18,3,18,0.23
2014-12-18,44.5,40.0,36.0,33.9,30.0,26.3,87,68,56,29.80,29.65,28,4,28,0.00
2014-12-19,37.3,34.2,29.0,26.2,22.4,19.4,67,62,55,30.08,29.79,19,3,19,0.00
2014-12-20,35.8,31.8,27.0,28.4,23.0,19.3,76,70,64,30.25,30.08,11,2,15,0.00
2014-12-21,36.0,33.9,30.6,29.7,26.9,24.8,82,76,68,30.31,30.22,14,3,14,0.00
2014-12-22,43.5,39.1,34.0,39.1,32.7,24.9,89,78,68,30.33,30.22,14,2,14,0.00
2014-12-23,46.4,44.9,42.5,45.0,42.1,36.4,95,90,76,30.23,30.09,20,4,20,0.10
2014-12-24,47.3,44.4,41.8,46.2,43.2,40.5,96,96,95,30.09,29.48,10,1,10,0.34
2014-12-25,60.5,51.1,44.2,59.6,41.4,28.6,98,73,43,29.90,29.40,28,4,28,0.16
2014-12-26,49.8,43.7,39.1,31.1,29.0,27.6,66,56,46,30.09,29.90,12,2,19,0.00
2014-12-27,52.8,44.1,36.9,33.7,30.9,26.9,71,60,45,30.16,29.95,13,1,13,0.00
2014-12-28,52.5,46.6,39.8,42.5,34.5,27.1,81,63,54,29.95,29.69,22,3,22,0.00
2014-12-29,41.8,36.5,30.0,27.1,19.5,11.3,64,51,34,30.15,29.92,18,2,18,0.00
2014-12-30,30.0,26.0,21.8,10.6,3.1,-7.2,52,38,23,30.30,30.15,17,2,17,0.00
2014-12-31,31.8,24.1,18.8,7.8,3.9,-1.2,55,42,27,30.26,30.06,17,2,17,0.00
2015-1-1,33.1,27.5,21.4,14.9,5.9,2.3,50,40,27,30.06,29.84,16,3,20,0.00
2015-1-2,40.8,35.3,31.9,17.0,14.6,9.7,47,42,35,30.38,29.86,23,3,23,0.00